Regional Weather Roundup
Issued by NWS

Home | Current Version | Previous Version | Graphics & Text | Print | Product List | Glossary Off
Versions: 1 2 3 4 5 6 7 8 9 10 11 12 13 14 15 16 17 18 19 20 21 22 23 24 25 26 27 28 29 30 31 32 33 34 35 36 37 38 39 40 41 42 43 44 45 46 47 48 49 50

450
ASUS43 KMKX 221100
RWRWI

WISCONSIN REGIONAL WEATHER ROUNDUP
NATIONAL WEATHER SERVICE MILWAUKEE/SULLIVAN WI
500 AM CST SUN JAN 22 2017

NOTE: "FAIR" INDICATES FEW OR NO CLOUDS BELOW 12,000 FEET WITH NO
SIGNIFICANT WEATHER AND/OR OBSTRUCTIONS TO VISIBILITY.

WIZ001-002-006>008-014>016-023>028-221200-
NORTHWEST WISCONSIN

CITY           SKY/WX    TMP DP  RH WIND       PRES   REMARKS
SUPERIOR ARPT  CLOUDY    35  35 100 CALM      29.61R
ASHLAND        CLOUDY    34  33  96 W5        29.59R FOG     WCI  30
HAYWARD        FOG       34  33  96 VRB3      29.57S VSB 1
SIREN          CLOUDY    34  34  99 N5        29.59S WCI  30
CUMBERLAND     CLOUDY    32  32 100 N6        29.57R FOG     WCI  26
RICE LAKE      CLOUDY    34  34 100 NW3       29.59R
CHETEK         CLOUDY    34  34 100 CALM      29.58R FOG
LADYSMITH      FOG       34  34  99 CALM      29.58R VSB 1/2
EAU CLAIRE     FOG       34  34 100 CALM      29.57R VSB 3/4
MENOMONIE        N/A    N/A N/A N/A MISG        N/A
NEW RICHMOND   FOG       33  33 100 CALM      29.60R VSB 1/2
OSCEOLA        CLOUDY    34  34 100 CALM      29.63R FOG
$$

WIZ003>005-009-010-017-018-221200-
NORTH CENTRAL WISCONSIN

CITY           SKY/WX    TMP DP  RH WIND       PRES   REMARKS
MANITOWISH WTR FOG       33  33 100 CALM      29.53S VSB 1/4
ARBOR VITAE    FOG       37  36  97 CALM      29.53S VSB 1/2
WOODRUFF       FOG       37  36  97 CALM      29.53S VSB 1/2
RHINELANDER    FOG       34  34 100 CALM      29.54R VSB 1/4
EAGLE RIVER    FOG       33  33 100 CALM      29.52S VSB 1/2
LAND O LAKES   FOG       34  34 100 CALM      29.55R VSB 1/2
PHILLIPS       FOG       33  33 100 CALM      29.54R VSB 3/4
TOMAHAWK       FOG       33  32  97 CALM      29.55R VSB 1/2
MEDFORD        FOG       33  33  99 W3        29.54R VSB 1/4
MERRILL        FOG       33  33 100 CALM        N/A  VSB 1/2
$$

WIZ029-030-035-036-043>047-221200-
CENTRAL WISCONSIN

CITY           SKY/WX    TMP DP  RH WIND       PRES   REMARKS
WAUSAU         LGT RAIN  35  35 100 NW5       29.54R VSB 1/2 WCI  31
MOSINEE        LGT RAIN  34  34 100 CALM      29.56R VSB 1/4
MARSHFIELD     FOG       35  35 100 W3        29.54R VSB 1/4
STEVENS POINT  FOG       34  34 100 CALM      29.56R VSB 1/2
WAUPACA        FOG       39  38  97 CALM      29.56S VSB 1/2
WAUTOMA        CLOUDY    36  36 100 W5        29.57S FOG     WCI  32
WISC RAPIDS    FOG       37  37 100 W3        29.57R VSB 1/2
CAMP DOUGLAS   FOG       36  34  93 CALM      29.56S VSB 1/2
$$

WIZ011>013-019>022-031-037>040-048>050-221200-
NORTHEAST WISCONSIN

CITY           SKY/WX    TMP DP  RH WIND       PRES   REMARKS
ANTIGO         FOG       32  32 100 CALM      29.54R VSB 3/4
SHAWANO        FOG       35  34  96 CALM      29.56S VSB 1/4
OCONTO         CLOUDY    34  33  99 CALM      29.56S VSB 1/4
STURGEON BAY   FOG       37  37 100 CALM      29.57S VSB 1/4
GREEN BAY      FOG       37  37 100 S5        29.56S VSB 1/4 WCI  33
MANITOWOC      NOT AVBL
APPLETON       NOT AVBL
CLINTONVILLE   FOG       34  34 100 CALM      29.56S VSB 1/4
OSHKOSH        FOG       36  35  96 CALM      29.56S VSB 1/2
$$

WIZ032>034-041-042-053>061-221200-
SOUTHWEST WISCONSIN

CITY           SKY/WX    TMP DP  RH WIND       PRES   REMARKS
LA CROSSE      FOG       39  36  89 SW3       29.58R VSB 1
SPARTA         FOG       36  36 100 CALM      29.58  VSB 1/2
VIROQUA        CLOUDY    35  35 100 CALM      29.56R
BOSCOBEL       CLOUDY    37  35  92 CALM      29.59R FOG
PRAIRIE DU CHI CLOUDY    34  33  97 CALM      29.59R FOG
PLATTEVILLE    CLOUDY    32  32 100 CALM      29.58R VSB 1/4
$$

WIZ056-057-062-063-064-067-068-221200-
SOUTH CENTRAL WISCONSIN

CITY           SKY/WX    TMP DP  RH WIND       PRES   REMARKS
REEDSBURG      FOG       36  36 100 CALM      29.57R VSB 3/4
BARABOO/DELLS  FOG       37  37  99 CALM      29.56R VSB<1/4
LONE ROCK      NOT AVBL
MINERAL POINT  CLOUDY    36  36 100 CALM      29.56S FOG
MADISON        CLOUDY    38  37  97 CALM      29.58S FOG
MIDDLETON      CLOUDY    39  39 100 W5        29.57S
WATERTOWN      CLOUDY    38  38 100 CALM      29.57R FOG
MONROE         FOG       36  36 100 W5        29.56F VSB 1/4 WCI  32
JANESVILLE     FOG       37  37 100 SW3       29.56F VSB 3/4
$$

WIZ051-052-058>065-066-070>072-221200-
SOUTHEAST WISCONSIN

CITY           SKY/WX    TMP DP  RH WIND       PRES   REMARKS
MILWAUKEE      CLOUDY    40  38  93 CALM      29.57S FOG
WAUKESHA       CLOUDY    37  37 100 W5        29.57S WCI  34
MILWAUKEE/TIMM MOCLDY    37  36  93 CALM      29.58R FOG
RACINE         CLOUDY    37  36  96 CALM      29.59S FOG
KENOSHA        FOG       38  37  97 CALM      29.57S VSB 1/4
FOND DU LAC    FOG       38  36  92 SW5       29.56S VSB 1/4 WCI  34
SHEBOYGAN      FOG       37  36  96 CALM      29.57S VSB 3/4
WEST BEND      CLOUDY    39  39 100 CALM      29.57S FOG
JUNEAU         FOG       37  36  99 S5        29.57S VSB<1/4 WCI  33
$$

LSZ147-162-221200-
LAKE SUPERIOR

STATION/POSITION TIME  TEMP    WIND        PRES    WAVE
                       AIR SEA DIR/SP/G            HT/PER
                 (UTC) (F)     (DEG/KT/KT) (MB)    (FT/S)
DEVILS ISLAND    1000   35      40/ 16/ 18 1002.1R
PORT WING        1040   35      20/ 10/ 11 1002.4R
SAXON HARBOR     1040   34     200/  2/  4 1001.7R
$$

LMZ867-665-643>646-221200-
LAKE MICHIGAN

STATION/POSITION TIME  TEMP    WIND        PRES    WAVE
                       AIR SEA DIR/SP/G            HT/PER
                 (UTC) (F)     (DEG/KT/KT) (MB)    (FT/S)
NORTHPORT PIER   1040   36        CALM     1001.7R
SISTER BAY       1020   34        CALM       N/A
KEWAUNEE LAKESHO 1030   37      CALM  /  1 1001.0S
SHEBOYGAN LAKESH 1000   41     240/  2/  2 1001.6R
PORT WASHINGTON  1030   38     300/  1/  2 1002.7R
KENOSHA   LAKESH 1000   38     190/  6/  7 1001.7
$$

TC  - TEMPERATURE IN CELSIUS
VSB - VISIBILITY IN STATUTE MILES
WCI - WIND CHILL INDEX
HX  - HEAT INDEX





USA.gov is the U.S. government's official web portal to all federal, state and local government web resources and services.